Showing default

LEMUR 2 AHMED-ASRAR, 60576

Orbit data source: Space-Track

LEMUR 2 AHMED-ASRAR, 60576 is an American payload satellite in SSO that was launched on Fri, 16 Aug 2024 UTC via an FALCON 9 launch vehicle from the Air Force Western Test Range (AFWTR). Payload-class satellites include a variety of spacecraft equipped with specific instruments for various scientific and technological missions. These include communications satellites like Starlink; space stations such as the ISS; scientific satellites like the Hubble; Earth observation satellites from companies like Planet Labs, Umbra, and HawkEye 360; GPS; miniature CubeSats for education and research; and military/defense satellites.

Loading next visibility...
Identifier
60576, 2024-149DN
Orbit
SSO
Country
Flag of USUS
Related business
Manufacturer
Spire/Glasgow
Mission
Operational Commercial Com/MetRO
Bus & Motor
CUBESAT 3U, Unknown motor
Mass
7.6 kg wet, 7.6 kg dry
Launch date (UTC)
2024-08-16 (1 year ago)
Launch vehicle
FALCON 9
Launch site
Air Force Western Test Range (AFWTR)
Object type
Payload
Rocket body
Debris
Shape & HBR
Box + 2 Pan, 0.5 m
Radar Cross Section
0.063 m², Small (<0.1 m²)

Expand to show TLE details & history
Last TLE update: 6 hours ago

TLE from 6 hours ago
0 LEMUR 2 AHMED-ASRAR
1 60576U 24149DN  25312.15172205  .00017434  00000-0  11777-2 0  9994
2 60576  97.7190  30.8888 0003286  60.7240 299.4315 15.06640097 67219
Epoch: 2025-11-08T03:38Z
TLE epoch observation values (Epoch: 2025-11-08T03:38:28.785Z)
Latitude
-0.00001°
Longitude
-71.31658°
Altitude
548.421 km
Speed
7.588 km/s
True Right ascension
02h 03m 33s
True Declination
0° 00' 00"
Sunlit
Object was in full shadow at epoch
Visualization orbit readout
Latitude
Unknown
Longitude
Unknown
Altitude
Unknown
Speed
Unknown
Apparent Right ascension
Unknown
Apparent Declination
Unknown
Sunlit
N/A
Visualization observer readout
Local Sidereal Time
05:37:48
Azimuth
Unknown
Elevation
Unknown
Doppler factor
Unknown
Orbital elements
Apogee altitude
545.747 km
Perigee altitude
541.199 km
Semi-major axis
6,921.61 km
Eccentricity
0.00033
Inclination
97.719°
RAAN
30.8888°
Arg. of periapsis
60.724°
True anomaly
299.3987°
Mean anomaly
299.4315°
Eccentric anomaly
299.4151°
Mean motion
3.76906 °/min
Orbital period
95.51 mins
BSTAR
0.0011777
Loading maneuver chart data...
Computing Atmospheric mass density...
Loading historical data...
Loading historical data...
Loading historical data...
Loading historical data...
Loading historical data...
Loading historical data...
Loading historical data...

Documentation

Showing up to 5 results
|